Ballina Observation History
Time Wind Speed Temp Pressure Rel. Hum Rain
25/10:30pm W 4-5 kts 22.7°c 1014.6 hPa 94% 1.2mm
25/10:00pm WNW 3-4 kts 22.9°c 1014.7 hPa 93% 1.2mm
25/09:30pm W 2-3 kts 23.1°c 1014.6 hPa 92% 1.2mm
25/09:00pm W 3-5 kts 23.0°c 1014.6 hPa 92% 1.2mm
25/08:30pm SSE 3-4 kts 23.4°c 1014.5 hPa 87% 1.2mm
25/08:00pm ESE 2-3 kts 23.6°c 1014.3 hPa 85% 1.2mm
25/07:30pm SE 5-6 kts 24.4°c 1014.0 hPa 82% 1.2mm
25/07:00pm SE 7-9 kts 24.8°c 1014.0 hPa 79% 1.2mm
25/06:30pm SE 7-10 kts 25.0°c 1014.0 hPa 79% 1.2mm
25/06:00pm SE 8-11 kts 25.3°c 1013.9 hPa 77% 1.2mm
25/05:30pm SE 9-13 kts 25.5°c 1013.7 hPa 76% 1.2mm
25/05:00pm ESE 9-13 kts 26.1°c 1013.8 hPa 75% 1.2mm
25/04:30pm ESE 9-12 kts 26.5°c 1013.9 hPa 75% 1.2mm
25/04:00pm ESE 8-14 kts 26.5°c 1014.0 hPa 72% 1.2mm
25/03:30pm ESE 10-14 kts 27.6°c 1014.2 hPa 65% 1.2mm
25/03:00pm ESE 10-15 kts 27.4°c 1014.5 hPa 69% 1.2mm
25/02:30pm ESE 9-13 kts 27.2°c 1014.9 hPa 67% 1.2mm
25/02:00pm ESE 11-13 kts 27.1°c 1015.2 hPa 68% 1.2mm
25/01:30pm ESE 10-13 kts 27.1°c 1015.4 hPa 70% 1.2mm
25/01:00pm ESE 8-11 kts 26.8°c 1015.5 hPa 75% 1.2mm
25/12:30pm SSE 5-7 kts 25.4°c 1015.8 hPa 86% 1.2mm
25/12:00pm WSW 3-6 kts 24.4°c 1016.4 hPa 89% 1.2mm
25/11:30am N 1-3 kts 23.3°c 1016.8 hPa 90% 1.2mm
25/11:18am SSE 3-5 kts 23.0°c 1016.9 hPa 92% 1.2mm
25/11:00am S 5-8 kts 23.0°c 1017.0 hPa 93% 1.2mm
25/10:39am SSW 8-10 kts 22.9°c 1017.2 hPa 91% 0.4mm
25/10:30am SW 8-11 kts 23.4°c 1017.1 hPa 89% 0.2mm
25/10:00am SW 7-11 kts 22.8°c 1017.0 hPa 92% 0.2mm
25/09:30am SW 8-10 kts 23.2°c 1016.9 hPa 92% 0.0mm
25/09:00am SSW 5-8 kts 22.2°c 1016.7 hPa 95% 69.8mm
25/08:30am W 7-8 kts 21.6°c 1016.6 hPa 98% 69.8mm
25/08:00am W 8-9 kts 20.8°c 1016.6 hPa 98% 69.8mm
25/07:45am W 6-7 kts 20.8°c 1016.6 hPa 99% 69.8mm
25/07:30am W 5-6 kts 20.5°c 1016.6 hPa 98% 69.8mm
25/07:10am SSW 2-4 kts 20.4°c 1016.6 hPa 98% 69.4mm
25/07:00am W 5-6 kts 20.4°c 1016.4 hPa 98% 69.2mm
25/06:30am WNW 6-7 kts 20.3°c 1016.3 hPa 98% 69.2mm
25/06:25am WNW 5-7 kts 20.3°c 1016.3 hPa 98% 69.2mm
25/06:00am NW 3-5 kts 20.3°c 1016.3 hPa 98% 68.6mm
25/05:44am WNW 2-4 kts 20.4°c 1016.2 hPa 98% 67.4mm
25/05:30am W 3-5 kts 20.3°c 1015.9 hPa 98% 67.2mm
25/05:00am WNW 4-6 kts 20.4°c 1015.9 hPa 98% 67.2mm
25/04:30am W 4 kts 20.5°c 1015.9 hPa 98% 67.0mm
25/04:00am W 5-6 kts 20.6°c 1016.1 hPa 98% 67.0mm
25/03:30am W 6-8 kts 20.6°c 1016.2 hPa 98% 67.0mm
25/03:00am W 6-8 kts 20.5°c 1016.5 hPa 98% 67.0mm
25/02:41am SW 6-9 kts 20.6°c 1016.8 hPa 99% 67.0mm
25/02:30am SW 6-8 kts 20.7°c 1016.9 hPa 99% 66.8mm
25/02:11am S 1-3 kts 20.8°c 1017.2 hPa 99% 65.6mm
25/02:00am SSE 3-4 kts 20.8°c 1017.3 hPa 99% 65.2mm
25/01:30am WSW 7-8 kts 20.7°c 1017.2 hPa 99% 65.2mm
25/01:14am W 6-8 kts 20.8°c 1017.6 hPa 98% 65.0mm
25/01:00am WNW 5-7 kts 20.9°c 1017.7 hPa 98% 64.8mm
25/12:30am NW 4-5 kts 20.9°c 1018.1 hPa 98% 62.6mm
25/12:07am NNW 2-4 kts 20.9°c 1018.2 hPa 98% 61.2mm
25/12:00am WNW 4-5 kts 20.9°c 1018.3 hPa 98% 60.6mm
Time Wind Speed Temp Pressure Rel. Hum Rain
24/11:30pm W 6-8 kts 20.9°c 1018.0 hPa 98% 60.4mm
24/11:00pm SW 6-8 kts 20.8°c 1018.4 hPa 98% 60.4mm
24/10:30pm W 6-8 kts 20.9°c 1018.3 hPa 98% 60.4mm
24/10:16pm WNW 5-7 kts 20.9°c 1018.7 hPa 98% 60.2mm
24/10:00pm NNE 4-5 kts 21.0°c 1018.8 hPa 98% 60.0mm
24/09:46pm NNW 1-6 kts 21.0°c 1018.8 hPa 97% 59.6mm
24/09:30pm NW 3-4 kts 20.9°c 1018.7 hPa 97% 59.2mm
24/09:00pm NNW 4-5 kts 20.9°c 1018.6 hPa 97% 59.2mm
24/08:30pm WNW 5 kts 20.9°c 1018.3 hPa 98% 59.2mm
24/08:00pm WNW 5-6 kts 20.9°c 1018.0 hPa 98% 59.2mm
24/07:30pm WNW 5-6 kts 20.9°c 1017.8 hPa 98% 59.2mm
24/07:00pm SW 6-8 kts 20.9°c 1017.7 hPa 98% 59.2mm
24/06:30pm SW 7-9 kts 20.8°c 1017.5 hPa 98% 59.2mm
24/06:25pm SW 7-9 kts 20.8°c 1017.5 hPa 98% 59.0mm
24/06:00pm WSW 6-8 kts 21.2°c 1017.7 hPa 98% 58.6mm
24/05:30pm SSW 1-3 kts 20.7°c 1017.6 hPa 98% 58.0mm
24/05:00pm S 6-7 kts 20.9°c 1017.5 hPa 97% 53.4mm
24/04:30pm ENE 3-6 kts 21.3°c 1017.3 hPa 97% 40.0mm
24/04:00pm N 5-8 kts 21.4°c 1017.3 hPa 96% 25.2mm
24/03:30pm NNW 6-8 kts 21.7°c 1017.3 hPa 94% 9.4mm
24/03:09pm S 8-12 kts 23.2°c 1017.2 hPa 90% 7.6mm
24/03:00pm SSW 9-13 kts 23.7°c 1017.3 hPa 89% 7.2mm
24/02:30pm S 9-12 kts 23.7°c 1017.6 hPa 86% 7.2mm
24/02:00pm S 7-10 kts 24.0°c 1017.9 hPa 86% 7.2mm
24/01:30pm SSW 6-8 kts 23.3°c 1018.1 hPa 90% 7.2mm
24/01:00pm WSW 5-8 kts 23.0°c 1018.2 hPa 93% 7.2mm
24/12:30pm W 6-8 kts 22.3°c 1018.8 hPa 95% 7.2mm
24/12:00pm SW 6-7 kts 22.0°c 1019.0 hPa 95% 7.2mm
24/11:30am SE 5-7 kts 21.8°c 1018.9 hPa 92% 6.4mm
24/11:09am SSW 3-4 kts 22.0°c 1019.4 hPa 94% 6.4mm
24/11:00am E 1-5 kts 21.6°c 1019.5 hPa 93% 6.4mm
24/10:41am NNW 2-5 kts 21.3°c 1019.6 hPa 95% 6.2mm
24/10:30am WSW 4-5 kts 21.2°c 1019.6 hPa 96% 6.2mm
24/10:00am NNW 5-7 kts 21.1°c 1019.8 hPa 98% 5.4mm
24/09:30am WNW 6-7 kts 20.9°c 1019.6 hPa 97% 0.6mm
24/09:25am WNW 6-8 kts 20.9°c 1019.6 hPa 97% 0.4mm
24/09:00am WNW 6-8 kts 21.1°c 1019.4 hPa 96% 6.6mm
24/08:46am W 6-7 kts 21.1°c 1019.3 hPa 96% 6.6mm
24/08:30am W 5-7 kts 21.1°c 1018.9 hPa 97% 6.6mm
24/08:00am WNW 5-6 kts 20.6°c 1018.7 hPa 98% 6.6mm
24/07:30am W 5 kts 20.2°c 1018.8 hPa 99% 6.6mm
24/07:23am WSW 4-5 kts 20.2°c 1018.7 hPa 99% 6.6mm
24/07:00am WSW 4-5 kts 20.0°c 1018.6 hPa 99% 6.6mm
24/06:45am W 6-7 kts 20.0°c 1018.4 hPa 99% 6.6mm
24/06:30am WSW 6-7 kts 20.0°c 1018.2 hPa 98% 6.6mm
24/06:00am WSW 6-8 kts 20.1°c 1018.3 hPa 98% 6.6mm
24/05:30am W 4-5 kts 20.1°c 1018.0 hPa 98% 6.6mm
24/05:00am SSW 6-9 kts 20.1°c 1018.1 hPa 98% 6.4mm
24/04:30am CALM 0 kts 20.0°c 1017.6 hPa 98% 6.2mm
24/04:00am CALM 0 kts 20.0°c 1017.7 hPa 98% 6.2mm
24/03:30am NW 4-6 kts 20.1°c 1018.3 hPa 98% 6.2mm
24/03:00am WNW 7-9 kts 20.0°c 1018.4 hPa 98% 6.2mm
24/02:40am WNW 6-8 kts 19.9°c 1018.6 hPa 98% 6.2mm
24/02:38am WNW 7-11 kts 20.0°c 1018.6 hPa 98% 6.2mm
24/02:30am WNW 7-11 kts 20.0°c 1018.6 hPa 98% 6.2mm
24/02:29am NW 7-11 kts 19.9°c 1018.6 hPa 98% 6.2mm
24/02:14am NNW 6-8 kts 20.1°c 1018.8 hPa 98% 5.4mm
24/02:05am NW 6-8 kts 20.1°c 1018.9 hPa 98% 5.2mm
24/02:00am WNW 5-7 kts 20.1°c 1019.0 hPa 98% 5.2mm
24/01:39am SW 5-7 kts 20.0°c 1019.2 hPa 98% 4.2mm
24/01:30am W 6-7 kts 20.2°c 1019.2 hPa 98% 3.6mm
24/01:00am W 5-6 kts 20.1°c 1019.6 hPa 98% 3.6mm
24/12:30am NW 7-9 kts 20.2°c 1019.9 hPa 98% 3.6mm
24/12:12am WNW 6-8 kts 20.3°c 1020.0 hPa 98% 3.4mm
24/12:00am WNW 2-6 kts 20.2°c 1020.1 hPa 98% 3.4mm
Time Wind Speed Temp Pressure Rel. Hum Rain
23/11:57pm WNW 2-6 kts 20.2°c 1020.1 hPa 98% 3.4mm
23/11:30pm WSW 6-7 kts 20.1°c 1020.4 hPa 98% 3.0mm
23/11:00pm W 6-7 kts 20.1°c 1020.3 hPa 98% 3.0mm
23/10:45pm SSW 3-7 kts 20.3°c 1020.5 hPa 98% 3.0mm
23/10:30pm SW 6-9 kts 20.2°c 1020.7 hPa 97% 3.0mm
23/10:00pm SW 7-10 kts 20.5°c 1020.5 hPa 97% 1.2mm
23/09:58pm SW 7-10 kts 20.5°c 1020.5 hPa 97% 1.0mm
23/09:30pm WSW 8-10 kts 20.3°c 1020.5 hPa 96% 0.6mm
23/09:00pm WSW 7-11 kts 20.6°c 1020.5 hPa 95% 0.6mm
23/08:30pm SSW 8-12 kts 20.9°c 1020.4 hPa 94% 0.6mm
23/08:00pm S 10-13 kts 21.0°c 1020.2 hPa 92% 0.4mm
23/07:30pm S 11-15 kts 21.6°c 1020.0 hPa 92% 0.2mm
23/07:00pm S 10-15 kts 22.5°c 1019.9 hPa 88% 0.0mm
23/06:30pm SSE 11-16 kts 22.9°c 1019.8 hPa 86% 0.0mm
23/06:00pm SSE 11-16 kts 23.6°c 1019.9 hPa 82% 0.0mm
23/05:30pm SSE 13-18 kts 23.7°c 1019.8 hPa 80% 0.0mm
23/05:00pm SE 10-14 kts 24.1°c 1019.8 hPa 76% 0.0mm
23/04:30pm S 9-12 kts 23.8°c 1019.5 hPa 79% 0.0mm
23/04:00pm SSE 9-12 kts 23.4°c 1019.8 hPa 82% 0.0mm
23/03:30pm SSE 11-15 kts 24.1°c 1020.0 hPa 79% 0.0mm
23/03:00pm SSE 13-17 kts 23.6°c 1020.4 hPa 81% 0.0mm
23/02:30pm SE 11-16 kts 24.4°c 1020.7 hPa 75% 0.0mm
23/02:00pm SE 11-17 kts 24.8°c 1021.0 hPa 74% 0.0mm
23/01:30pm SE 11-15 kts 24.8°c 1021.4 hPa 72% 0.0mm
23/01:00pm SE 13-19 kts 25.1°c 1021.5 hPa 74% 0.0mm
23/12:30pm SE 12-17 kts 25.7°c 1021.6 hPa 74% 0.0mm
23/12:00pm SE 11-17 kts 24.4°c 1021.7 hPa 74% 0.0mm
23/11:30am SE 11-14 kts 25.7°c 1021.9 hPa 62% 0.0mm
23/11:00am SE 10-14 kts 25.6°c 1022.0 hPa 64% 0.0mm
23/10:30am SE 10-15 kts 25.9°c 1022.0 hPa 58% 0.0mm
23/10:00am SE 12-17 kts 26.4°c 1021.8 hPa 61% 0.0mm
23/09:30am SE 12-16 kts 25.9°c 1021.9 hPa 66% 0.0mm
23/09:00am SE 12-17 kts 25.5°c 1022.0 hPa 68% 0.0mm
23/08:30am SE 11-15 kts 25.4°c 1021.6 hPa 66% 0.0mm
23/08:00am SE 7-11 kts 24.5°c 1021.6 hPa 69% 0.0mm
23/07:30am SE 8-12 kts 24.2°c 1021.4 hPa 68% 0.0mm
23/07:00am ESE 6-9 kts 23.9°c 1021.1 hPa 72% 0.0mm
23/06:30am SE 6-9 kts 23.3°c 1020.7 hPa 77% 0.0mm
23/06:00am SE 9-14 kts 23.0°c 1020.4 hPa 73% 0.0mm
23/05:30am SE 7-12 kts 22.9°c 1020.1 hPa 79% 0.0mm
23/05:00am SE 6-8 kts 22.4°c 1020.0 hPa 77% 0.0mm
23/04:30am SE 7-9 kts 22.8°c 1019.9 hPa 76% 0.0mm
23/04:00am SE 7-10 kts 23.1°c 1020.1 hPa 76% 0.0mm
23/03:30am ESE 5-8 kts 22.8°c 1020.4 hPa 76% 0.0mm
23/03:00am ESE 7-10 kts 23.0°c 1020.6 hPa 74% 0.0mm
23/02:30am SE 6-9 kts 23.7°c 1020.7 hPa 74% 0.0mm
23/02:00am ESE 7-11 kts 23.4°c 1020.9 hPa 72% 0.0mm
23/01:30am ESE 9-13 kts 23.5°c 1020.9 hPa 70% 0.0mm
23/01:00am SE 8-11 kts 23.5°c 1021.3 hPa 72% 0.0mm
23/12:30am SE 9-14 kts 23.7°c 1021.2 hPa 71% 0.0mm
23/12:00am ESE 8-13 kts 23.4°c 1021.5 hPa 68% 0.0mm